Regional Weather Roundup
Issued by NWS

Home | Current Version | Previous Version | Graphics & Text | Print | Product List | Glossary On
Versions: 1 2 3 4 5 6 7 8 9 10 11 12 13 14 15 16 17 18 19 20 21 22 23 24 25 26 27 28 29 30 31 32 33 34 35 36 37 38 39 40 41 42 43 44 45 46 47 48 49 50
010
ASUS44 KLIX 230210
RWRLA
LOUISIANA WEATHER ROUNDUP
NATIONAL WEATHER SERVICE NEW ORLEANS LA
900 PM CDT MON SEP 22 2014

NOTE: "FAIR" INDICATES FEW OR NO CLOUDS BELOW 12,000 FEET WITH NO
      SIGNIFICANT WEATHER AND/OR OBSTRUCTIONS TO VISIBILITY.
      SKY/WX - SKY CONDITION AND SIGNIFICANT WEATHER.
      TMP - AIR TEMPERATURE.    DP   - DEWPOINT TEMPERATURE.
      RH  - RELATIVE HUMIDITY.  PRES - PRESSURE.
      HX  - HEAT INDEX.         WCI  - WIND CHILL INDEX.

*  THESE STATIONS ARE NOT NWS OR FAA STATIONS AND ARE NOT UNDER
   NWS QUALITY CONTROL.

LAZ040-048-061>063-065-066-069-230300-
SOUTHEAST LOUISIANA

CITY           SKY/WX    TMP DP  RH WIND       PRES   REMARKS
N.O. AUDUBON     N/A     82  61  49 MISG        N/A
N.O. INTL ARPT CLEAR     81  57  43 NE21      30.03R
N.O. LAKEFRONT CLEAR     82  61  48 NE22      30.04R
N.O. DOWNTOWN* FAIR      82  57  42 N8        30.04R
SLIDELL        CLEAR     69  60  73 N5        30.04R
BATON ROUGE    CLEAR     72  56  57 VRB5      30.06R
BOOTHVILLE     PTCLDY    83  72  69 NE12G18   30.01R
BELLE CHASSE   MOCLDY    79  58  48 NE9       30.02R
BOGALUSA*        N/A     67  59  73 CALM      30.07R
GALLIANO*      NOT AVBL
NEW ROADS*     FAIR      70  59  69 N7        30.07R
GONZALES*      FAIR      74  64  72 N3        30.05R
HAMMOND*       CLEAR     70  55  60 N5        30.08R
HOUMA*         CLEAR     77  55  47 N9        30.02R
PORT FOURCHON* MOCLDY    82  73  74 NE12G18   30.03R

$$

LAZ041-044-053-054-230300-
SOUTHWEST LOUISIANA

CITY           SKY/WX    TMP DP  RH WIND       PRES   REMARKS
LAKE CHARLES   CLEAR     77  60  55 NE15      30.05R
LAFAYETTE      CLEAR     72  58  61 NE9       30.06R
PATTERSON      CLEAR     75  68  78 N9        30.05R
SALT POINT       N/A     81  68  64 N6        30.02R
NEW IBERIA     CLEAR     75  60  59 N10       30.05R
CHENAULT AIRPK NOT AVBL

$$

LAZ027-028-230300-
CENTRAL LOUISIANA

CITY           SKY/WX    TMP DP  RH WIND       PRES   REMARKS
FORT POLK      CLEAR     72  57  59 NE8       30.09R
ALEXANDRIA INT CLEAR     70  56  61 N6        30.08R
ALEXANDRIA     CLEAR     71  56  58 VRB3      30.10R

$$

LAZ001-002-230300-
NORTHWEST LOUISIANA

CITY           SKY/WX    TMP DP  RH WIND       PRES   REMARKS
SHREVEPORT     CLEAR     73  52  47 NE8       30.12R
BARKSDALE AFB  CLEAR     70  53  55 NE3       30.13R
DTN SHREVEPORT CLEAR     71  54  54 N6        30.13R

$$

LAZ014-016-230300-
NORTHEAST LOUISIANA

CITY           SKY/WX    TMP DP  RH WIND       PRES   REMARKS
MONROE         CLEAR     69  52  54 N8        30.13R
TALLULAH       CLEAR     70  54  56 N9        30.12R

$$




USA.gov is the U.S. government's official web portal to all federal, state and local government web resources and services.